Weather History for KYNG - February, 2014

Change the Weather History Date:

Friday, February 7, 2014

  Actual Average Record
Temperature  
Mean Temperature 7 °F 27 °F  
Max Temperature 15 °F 34 °F 57 °F (1938)
Min Temperature -2 °F 20 °F -3 °F (1988)
Degree Days  
Heating Degree Days 58 38  
Month to date heating degree days 308 269  
Since 1 July heating degree days 4147 3892  
Cooling Degree Days 0 0  
Month to date cooling degree days 0 0  
Year to date cooling degree days 0 0  
Moisture  
Dew Point -5 °F    
Average Humidity 63    
Maximum Humidity 79    
Minimum Humidity 46    
Precipitation  
Precipitation T in 0.08 in 0.45 in (1965)
Month to date precipitation 0.70 0.53  
Year to date precipitation 3.13 3.08  
Snow  
Snow T in 0.40 in - ()
Month to date snowfall 5.1 3.2  
Since 1 July snowfall 62.7 39.2  
Snow Depth 5.00 in    
Sea Level Pressure  
Sea Level Pressure 30.37 in    
Wind  
Wind Speed 10 mph (SW)    
Max Wind Speed 18 mph    
Max Gust Speed 24 mph    
Visibility 10 miles    
Events Snow    
T = Trace of Precipitation, MM = Missing Value Source: NWS Daily Summary

Daily Weather History Graph

Daily Weather History Graph

Search for Another Location

Airport or City:

Trip Planner

Search our weather history database for the weather conditions in past years. The results will help you decide how hot, cold, wet, or windy it might be!

Date:

Astronomy

Feb. 07, 2014 Rise Set
Actual Time 7:27 AM EST 5:46 PM EST
Civil Twilight 6:58 AM EST 6:15 PM EST
Nautical Twilight 6:25 AM EST 6:48 PM EST
Astronomical Twilight 5:53 AM EST 7:20 PM EST
Moon 11:56 AM EST (2/7) 1:42 AM EST (2/7)
Length of Visible Light 11h 17m
Length of Day
10h 19m
First Quarter, 59% of the Moon is Illuminated
Feb 7
First Quarter
Feb 14
Full
Feb 22
Last Quarter
Mar 1
New
Mar 8
First Quarter

Hourly Weather History & Observations

Time (EST) Temp. Windchill Dew Point Humidity Pressure Visibility Wind Dir Wind Speed Gust Speed Precip Events Conditions
12:41 AM 10.4 °F -7.2 °F 1.4 °F 67% 30.26 in 9.0 mi WSW 17.3 mph 24.2 mph 0.00 in Snow Light Snow
12:51 AM 10.9 °F -3.4 °F 1.9 °F 67% 30.32 in 9.0 mi WSW 11.5 mph 21.9 mph 0.00 in Snow Light Snow
1:51 AM 8.1 °F -8.4 °F -2.0 °F 64% 30.34 in 9.0 mi West 13.8 mph - 0.00 in Snow Light Snow
2:51 AM 3.9 °F -9.4 °F -4.0 °F 70% 30.35 in 10.0 mi West 8.1 mph - 0.00 in   Partly Cloudy
3:51 AM 1.9 °F -11.8 °F -6.0 °F 69% 30.36 in 10.0 mi WSW 8.1 mph - N/A   Partly Cloudy
4:51 AM -0.9 °F -12.7 °F -8.0 °F 72% 30.38 in 10.0 mi WSW 5.8 mph - N/A   Partly Cloudy
5:51 AM -0.9 °F -12.7 °F -8.0 °F 72% 30.39 in 10.0 mi SW 5.8 mph - N/A   Scattered Clouds
6:51 AM -0.9 °F -14.1 °F -8.0 °F 72% 30.39 in 10.0 mi SSW 6.9 mph - N/A   Mostly Cloudy
7:51 AM -2.0 °F -16.6 °F -8.0 °F 76% 30.40 in 10.0 mi SW 8.1 mph - N/A   Scattered Clouds
8:51 AM -0.0 °F -16.3 °F -7.1 °F 72% 30.40 in 10.0 mi SW 10.4 mph - N/A   Mostly Cloudy
9:51 AM 1.9 °F -13.8 °F -7.1 °F 66% 30.40 in 10.0 mi SW 10.4 mph - N/A   Mostly Cloudy
10:51 AM 6.1 °F -6.8 °F -6.0 °F 58% 30.40 in 10.0 mi SSW 8.1 mph - N/A   Scattered Clouds
11:51 AM 9.0 °F -3.2 °F -4.0 °F 56% 30.39 in 10.0 mi SSW 8.1 mph - N/A   Scattered Clouds
12:51 PM 12.0 °F -4.5 °F -5.1 °F 46% 30.37 in 10.0 mi WSW 16.1 mph - N/A   Mostly Cloudy
1:51 PM 12.9 °F -3.4 °F -4.0 °F 47% 30.37 in 10.0 mi SW 16.1 mph 21.9 mph N/A   Scattered Clouds
2:51 PM 14.0 °F -0.2 °F -4.0 °F 45% 30.37 in 10.0 mi WSW 12.7 mph - N/A   Partly Cloudy
3:51 PM 14.0 °F -0.2 °F -4.0 °F 45% 30.38 in 10.0 mi SW 12.7 mph - N/A   Partly Cloudy
4:51 PM 12.9 °F -2.2 °F -4.0 °F 47% 30.38 in 10.0 mi SW 13.8 mph - N/A   Scattered Clouds
5:51 PM 12.9 °F -0.9 °F -5.1 °F 45% 30.39 in 10.0 mi SW 11.5 mph - N/A   Partly Cloudy
6:51 PM 10.9 °F -2.6 °F -5.1 °F 49% 30.40 in 10.0 mi SW 10.4 mph - N/A   Partly Cloudy
7:51 PM 9.0 °F -2.2 °F -5.1 °F 53% 30.40 in 10.0 mi SW 6.9 mph - N/A   Clear
8:51 PM 9.0 °F 0.6 °F -5.1 °F 53% 30.40 in 10.0 mi SSW 4.6 mph - N/A   Partly Cloudy
9:51 PM 6.1 °F -5.6 °F -7.1 °F 55% 30.39 in 10.0 mi SW 6.9 mph - N/A   Partly Cloudy
10:51 PM 5.0 °F -6.9 °F -7.1 °F 58% 30.38 in 10.0 mi SW 6.9 mph - N/A   Partly Cloudy
11:51 PM 3.9 °F -6.9 °F -7.1 °F 60% 30.37 in 10.0 mi SW 5.8 mph - N/A   Partly Cloudy